Tracking 35055 objects as of 18-Aug-2026
HD Live streaming from Space Station
objects crossing your sky now

QIANFAN-211

Track QIANFAN-211 now!
10-day predictions
QIANFAN-211 is classified as:


NORAD ID: 69810
Int'l Code: 2026-153L
Launch date: July 4, 2026
Source: People's Republic of China (PRC)
Launch site: Taiyaun Space Center, China (TSC)
Your satellite tracking list
Your tracking list is empty




NASA's NSSDC Master Catalog

Two Line Element Set (TLE):
1 69810U 26153L   26230.53939173  .00000336  00000-0  16773-3 0  9993
2 69810  88.9964 355.1385 0010054  80.3649 279.8674 14.14523593  6411
Source of the keplerian elements: AFSPC